Home > Time Zones > World Clock > Weather > Ghana > Accra > Past weeks

Flag for Ghana Weather past 2 weeks in Accra, Ghana

Now
79 °F

Partly sunny.


Feels Like: 82 °F
Forecast: N/A
Wind: 16 mph from Southwest

Location: Accra Airport

Current Time: Sep 2, 2014 at 4:50:47 PM

Latest Report: Sep 2, 2014 at 4:00 PM


Visibility: N/A

Pressure: 29.89 "Hg

Humidity: 84%

Dew point: 73 °F

Location of AccraLocation

Historic Weather in Accra — Graph

°F

Accra temperature yesterday

Maximum temperature yesterday: 79 °F (at 12:00 PM)
Minimum temperature yesterday: 75 °F (at 12:00 AM)
Average temperature yesterday: 77 °F

Past Weeks' High & Low Weather Summary

 TemperatureHumidityPressure
High84 °F (Aug 24, 12:00 PM)100% (Aug 21, 5:54 AM)30.04 "Hg (Aug 21, 5:54 AM)
Low70 °F (Aug 26, 12:00 PM)66% (Aug 24, 12:00 PM)29.83 "Hg (Aug 29, 5:52 PM)
Average76 °F88%29.93 "Hg
* Reported Aug 18 3:53 PM — Sep 2 3:00 PM, Accra, Weather by CustomWeather, © 2014

Note: Actual official high and low records may vary slightly from our data, if they occured in-between our weather recording intervals... More about our weather records

Advertising

Accra weather history for previous 24 hours

 ConditionsComfort  
Time TempWeatherWind HumidityBarometerVisibility
3:00 PM
Sep 2
81 °FPartly sunny.17 mph79%29.92 "HgN/A
2:00 PM81 °FMore clouds than sun.17 mph79%29.92 "HgN/A
12:59 PM79 °FOvercast.15 mph84%29.95 "HgN/A
12:00 PM79 °FMostly cloudy.15 mph84%29.98 "HgN/A
8:51 AM77 °FMore clouds than sun.14 mph89%30.01 "HgN/A
8:00 AM75 °FMostly cloudy.12 mph94%29.98 "HgN/A
7:00 AM75 °FMostly cloudy.12 mph94%29.95 "Hg5 mi
6:00 AM75 °FMostly cloudy.13 mph94%29.92 "HgN/A
5:00 AM75 °FMostly cloudy.12 mph94%29.92 "HgN/A
4:00 AM75 °FMostly cloudy.12 mph94%29.92 "HgN/A
3:00 AM75 °FMostly cloudy.13 mph94%29.92 "HgN/A
1:00 AM75 °FMostly cloudy.13 mph94%29.92 "HgN/A
12:00 AM75 °FMostly cloudy.14 mph94%29.95 "HgN/A
11:00 PM
Sep 1
75 °FMostly cloudy.14 mph94%29.95 "HgN/A
10:00 PM77 °FMostly cloudy.14 mph89%29.98 "HgN/A
9:00 PM77 °FMostly cloudy.14 mph89%29.95 "HgN/A
8:00 PM77 °FOvercast.13 mph89%29.92 "HgN/A
7:00 PM77 °FMostly cloudy.13 mph89%29.92 "HgN/A
6:00 PM77 °FMore clouds than sun.16 mph89%29.89 "HgN/A
Weather by CustomWeather, © 2014

See weather overviewHow to use our weather pages